Regional Weather Roundup
Issued by NWS

Home | Current Version | Previous Version | Text Only | Print | Product List | Glossary Off
Versions: 1 2 3 4 5 6 7 8 9 10 11 12 13 14 15 16 17 18 19 20 21 22 23 24 25 26 27 28 29 30 31 32 33 34 35 36 37 38 39 40 41 42 43 44 45 46 47 48 49 50

000
ASUS43 KLOT 230103
RWRIL

ILLINOIS REGIONAL WEATHER ROUNDUP
NATIONAL WEATHER SERVICE CHICAGO/ROMEOVILLE IL
700 PM CST WED NOV 22 2017

NOTE: "FAIR" INDICATES FEW OR NO CLOUDS BELOW 12,000 FEET WITH NO
SIGNIFICANT WEATHER AND/OR OBSTRUCTIONS TO VISIBILITY.

* THESE STATIONS ARE NOT UNDER NWS QUALITY CONTROL. THEY ALSO MAY NOT
  REPORT WEATHER SUCH AS PRECIPITATION OR FOG.

ILZ001-002-007-009-015-016-024-230200-
NORTHWEST ILLINOIS

CITY           SKY/WX    TMP DP  RH WIND       PRES   REMARKS
MOLINE         PTCLDY    33  17  51 S8        30.20F WCI  26
STERLING*        N/A     32  22  66 VRB3      30.23S
SAVANNA*       CLOUDY    31  21  65 S5        30.21F WCI  27
$$

ILZ003-004-008-010-011-017-018-230200-
NORTH CENTRAL ILLINOIS

CITY           SKY/WX    TMP DP  RH WIND       PRES   REMARKS
ROCKFORD       CLOUDY    31  18  58 S6        30.24F WCI  25
FREEPORT*      MOCLDY    28  21  75 S6        30.22F WCI  21
ROCHELLE*      CLOUDY    29  24  80 S3        30.24S
DE KALB*       CLOUDY    29  21  71 CALM      30.22F
PERU*          CLOUDY    30  20  65 S5        30.25S WCI  25
$$

ILZ005-006-012>014-019>023-230200-
NORTHEAST ILLINOIS

CITY           SKY/WX    TMP DP  RH WIND       PRES   REMARKS
CHICAGO-OHARE  CLOUDY    32  17  54 SW7       30.24F WCI  26
CHICAGO-MIDWAY NOT AVBL
AURORA         PTCLDY    30  21  69 S3        30.24F
LANSING*       PTCLDY    30  20  67 SW3       30.26S
JOLIET*        PTCLDY    30  23  75 CALM      30.26F
WAUKEGAN       CLOUDY    30  18  60 SW7       30.22F WCI  23
DUPAGE AIRPORT PTCLDY    30  19  63 S3        30.23F
KANKAKEE*      CLOUDY    30  18  61 CALM      30.27S
WHEELING       PTCLDY    32  18  56 SW6       30.25F WCI  26
MORRIS*        CLOUDY    29  22  74 CALM      30.24F
ROMEOVILLE*    MOCLDY    29  22  72 CALM      30.25F
NORTHERLY ISL    N/A     32  16  52 SW7         N/A  WCI  26
$$

LMZ740>746-230200-
SOUTHERN LAKE MICHIGAN

STATION/POSITION SKY/WX   TEMP    WIND        PRES    VSBY  WAVE
                          AIR SEA DIR/SP/G                  HT/PER
                          (F)     (DEG/KT/KT) (MB)    (MI)  (FT/S)
SOUTHERN BUOY              33 47  260/ 10/ 14 1024.6          2/ 6
HARRISON CRIB              34     250/ 11/ 12   N/A
BURNHAM HARBOR             33     240/  7/  9   N/A
CALUMET HARBOR             32     230/  5/  7 1024.1R
BURNS HARBOR               33     230/  6/ 10 1025.1R
MICHIGAN CITY              32     180/  6/  7   N/A
$$

ILZ025>027-034>036-040-047-049-050-058-095>099-230200-
WEST-CENTRAL ILLINOIS

CITY           SKY/WX    TMP DP  RH WIND       PRES   REMARKS
QUINCY         CLOUDY    33  18  53 S5        30.24S WCI  29
GALESBURG*     PTCLDY    32  21  64 S5        30.25S WCI  27
MACOMB*        PTCLDY    30  22  71 CALM      30.27S
JACKSONVILLE*  MOCLDY    31  17  57 CALM      30.25F
PITTSFIELD*    CLOUDY    32  20  61 S3        30.25F
$$

ILZ028>032-037-038-041>044-048-051>054-059>061-230200-
CENTRAL ILLINOIS

CITY           SKY/WX    TMP DP  RH WIND       PRES   REMARKS
PONTIAC        PTCLDY    30  22  70 CALM      30.26F
BLOOMINGTON    CLOUDY    29  20  69 SW5       30.26F WCI  24
DECATUR        MOCLDY    30  19  63 S3        30.26F
PEORIA         CLOUDY    32  20  61 S6        30.25F WCI  26
LACON*         PTCLDY    31  19  61 CALM      30.24F
LINCOLN*       PTCLDY    31  25  77 CALM      30.27S
SPRINGFIELD    CLOUDY    30  22  72 CALM      30.26F
TAYLORVILLE    PTCLDY    29  20  68 CALM      30.27F
$$

ILZ033-039-045-046-055>057-062-063-230200-
EAST-CENTRAL ILLINOIS

CITY           SKY/WX    TMP DP  RH WIND       PRES   REMARKS
CHAMPAIGN      CLOUDY    27  20  75 SW3       30.26F
DANVILLE*      CLOUDY    27  22  79 CALM      30.24F
RANTOUL*       PTCLDY    32  24  74 CALM      30.25F
MATTOON        CLOUDY    28  20  71 CALM      30.26F
PARIS*         CLOUDY    28  24  86 CALM      30.27F
$$

ILZ079-100>102-230200-
SOUTHWEST ILLINOIS

CITY           SKY/WX    TMP DP  RH WIND       PRES   REMARKS
ALTON          MOCLDY    28  23  80 CALM      30.28F
BELLEVILLE     PTCLDY    28  19  68 CALM      30.27F
CAHOKIA*       PTCLDY    30  19  63 CALM      30.29F
SPARTA*        CLOUDY    31  21  67 CALM      30.31R
$$

ILZ064>066-069>071-074>076-080>082-084>086-088>090-092>094-230200-
SOUTH-CENTRAL ILLINOIS

CITY           SKY/WX    TMP DP  RH WIND       PRES   REMARKS
CARBONDALE     CLOUDY    29  23  78 CALM      30.30R
CAIRO*         CLEAR     31  22  71 N3        30.29F
EFFINGHAM*     CLOUDY    29  24  79 CALM      30.30F
MARION         CLEAR     30  23  74 NW5       30.30S WCI  25
MT. VERNON     CLOUDY    27  23  85 CALM      30.30R
CENTRALIA*     PTCLDY    29  24  79 CALM      30.29R
SALEM*         CLOUDY    29  22  73 CALM      30.29S
METROPOLIS*    CLEAR     32  21  64 CALM      30.30S
$$

ILZ067-068-072-073-078-083-087-091-230200-
SOUTHEAST ILLINOIS

CITY           SKY/WX    TMP DP  RH WIND       PRES   REMARKS
LAWRENCEVILLE  CLOUDY    32  22  66 N3        30.29F
FLORA*         CLOUDY    31  22  68 CALM      30.30S
FAIRFIELD*     CLOUDY    28  22  79 CALM      30.28S
HARRISBURG*    CLOUDY    28  24  82 CALM      30.30S
ROBINSON*      CLOUDY    26  22  84 CALM      30.29F
CARMI*         CLOUDY    27  22  79 CALM      30.28F
$$

ABBREVIATIONS USED IN REMARKS
   TC - TEMPERATURE IN CELSIUS
  WCI - WIND CHILL INDEX
   HX - HEAT INDEX
  VSB - VISIBILITY
$$





USA.gov is the U.S. government's official web portal to all federal, state and local government web resources and services.